{"data":{"norad_id":61206,"intl_designator":"2024-171G","name":"STARLINK-11279 [DTC]","alt_names":[],"object_type":"PAYLOAD","status":"ACTIVE","operator":null,"country":"US","launch_date":"2024-09-20","launch_site_code":"AFWTR","launch_vehicle":null,"mission":null,"orbit_class":"UNKNOWN","rcs_meters":null,"size_class":null,"mass_kg":null,"dimensions":null,"purposes":["comms"],"wikipedia_slug":null,"has_3d_model":false,"image_url":null,"decayed_at":null,"tle_current":{"epoch":"2026-05-25T01:01:20.455104Z","epoch_age_seconds":64701,"freshness":"FRESH","line1":"1 61206U 24171G   26145.04259786  .00000804  00000+0  11489-4 0  9997","line2":"2 61206  53.1583 159.6594 0000983  73.1454 286.9671 15.69711019 96391","mean_motion":15.69711019,"eccentricity":9.83e-5,"inclination_deg":53.1583,"raan_deg":159.6594,"arg_perigee_deg":73.1454,"mean_anomaly_deg":286.9671,"bstar":1.1489e-5,"rev_number":9639,"period_min":91.736630664501,"perigee_km":359.06150271339,"apogee_km":360.38616615344,"semimajor_km":6737.8608344334,"source":"CELESTRAK","updated_at":"2026-05-25T13:38:19.359663Z"}}}